N1TS EPPO-KLGA

Flight info

Callsign N1TS
Flight time 8h 31m
Altitude 40000
Route XERBI DCT BINKA DCT PENET DCT OLPIB M725 AAL L621 LAGUM DCT PEVEB DCT EPOTU DCT GUNPA DCT OSBON DCT RATSU/M078F400 DCT 60N020W 59N030W 57N039W 54N046W/N0452F400 DCT SAXAN N546A ALLEX Q822 ENE Q480 BAF DCT NOBBI NOBBI5
Aircraft B38M/M-SDE1FGHILORVWXY/HB1

Departure

Time 2026-04-23 19:39
Airport Poznań-Ławica Airport (EPPO)

Arrival

Time 2026-04-24 04:11
Airport LaGuardia Airport (KLGA)
Time Latitude Longitude Altitude Speed Heading
2026-04-23 19:09 52.41740 16.82744 290 ft 0 kts
2026-04-23 19:34 52.41765 16.82741 291 ft 4 kts 12°
2026-04-23 19:35 52.41782 16.82783 295 ft 6 kts 81°
2026-04-23 19:35 52.41769 16.82852 294 ft 7 kts 141°
2026-04-23 19:35 52.41715 16.82845 291 ft 9 kts 193°
2026-04-23 19:35 52.41658 16.82903 291 ft 14 kts 110°
2026-04-23 19:36 52.41627 16.83124 291 ft 24 kts 103°
2026-04-23 19:36 52.41587 16.83407 292 ft 27 kts 102°
2026-04-23 19:36 52.41564 16.83717 291 ft 28 kts 93°
2026-04-23 19:36 52.41562 16.83898 291 ft 1 kts 50°
2026-04-23 19:37 52.41632 16.83981 291 ft 19 kts 25°
2026-04-23 19:37 52.41713 16.84030 296 ft 8 kts 21°
2026-04-23 19:37 52.41718 16.84033 295 ft 0 kts 20°
2026-04-23 19:37 52.41725 16.84037 295 ft 3 kts 20°
2026-04-23 19:38 52.41765 16.84062 292 ft 12 kts 20°
2026-04-23 19:38 52.41836 16.84011 291 ft 11 kts 292°
2026-04-23 19:38 52.41842 16.83974 293 ft 2 kts 287°
2026-04-23 19:38 52.41843 16.83969 293 ft 6 kts 288°
2026-04-23 19:39 52.41931 16.83522 294 ft 75 kts 288°
2026-04-23 19:39 52.42147 16.82401 296 ft 130 kts 287°
2026-04-23 19:39 52.42461 16.80790 536 ft 156 kts 289°
2026-04-23 19:39 52.42812 16.79103 1247 ft 157 kts 290°
2026-04-23 19:40 52.43134 16.77425 2112 ft 156 kts 292°
2026-04-23 19:40 52.43477 16.75647 2918 ft 171 kts 292°
2026-04-23 19:40 52.43851 16.73699 3725 ft 187 kts 291°
2026-04-23 19:40 52.44260 16.71571 4491 ft 204 kts 291°
2026-04-23 19:41 52.44706 16.69239 5215 ft 228 kts 292°
2026-04-23 19:41 52.45415 16.66811 6011 ft 243 kts 308°
2026-04-23 19:41 52.46585 16.64711 6939 ft 255 kts 317°
2026-04-23 19:41 52.47824 16.62631 8147 ft 256 kts 316°
2026-04-23 19:42 52.49059 16.60520 9235 ft 263 kts 315°
2026-04-23 19:42 52.50332 16.58320 10308 ft 269 kts 315°
2026-04-23 19:42 52.51642 16.56041 11144 ft 281 kts 315°
2026-04-23 19:42 52.53007 16.53647 11866 ft 295 kts 315°
2026-04-23 19:43 52.54437 16.51134 12681 ft 304 kts 316°
2026-04-23 19:43 52.55879 16.48596 13710 ft 304 kts 316°
2026-04-23 19:43 52.57333 16.46035 14525 ft 309 kts 316°
2026-04-23 19:43 52.58805 16.43438 15342 ft 312 kts 316°
2026-04-23 19:44 52.60274 16.40847 16165 ft 314 kts 317°
2026-04-23 19:44 52.61768 16.38206 16930 ft 318 kts 317°
2026-04-23 19:44 52.63289 16.35514 17694 ft 322 kts 317°
2026-04-23 19:44 52.64820 16.32801 18455 ft 325 kts 317°
2026-04-23 19:45 52.66365 16.30062 19088 ft 328 kts 317°
2026-04-23 19:45 52.67921 16.27298 19721 ft 331 kts 318°
2026-04-23 19:45 52.69496 16.24499 20349 ft 334 kts 317°
2026-04-23 19:45 52.71079 16.21682 20958 ft 337 kts 318°
2026-04-23 19:46 52.72658 16.18871 21554 ft 339 kts 318°
2026-04-23 19:46 52.74272 16.15993 22155 ft 342 kts 318°
2026-04-23 19:46 52.75897 16.13091 22742 ft 345 kts 318°
2026-04-23 19:46 52.77532 16.10169 23332 ft 348 kts 318°
2026-04-23 19:47 52.78618 16.08225 23711 ft 350 kts 317°
2026-04-23 19:47 52.80836 16.04253 24348 ft 353 kts 318°
2026-04-23 19:47 52.82508 16.01255 24829 ft 355 kts 318°
2026-04-23 19:47 52.84165 15.98278 25295 ft 358 kts 318°
2026-04-23 19:48 52.85853 15.95243 25732 ft 360 kts 318°
2026-04-23 19:48 52.87553 15.92181 26220 ft 362 kts 318°
2026-04-23 19:48 52.89262 15.89101 26674 ft 364 kts 318°
2026-04-23 19:48 52.90981 15.85999 27101 ft 367 kts 318°
2026-04-23 19:49 52.92711 15.82872 27536 ft 369 kts 318°
2026-04-23 19:49 52.94453 15.79719 27959 ft 372 kts 318°
2026-04-23 19:49 52.96207 15.76542 28373 ft 374 kts 318°
2026-04-23 19:49 52.97966 15.73352 28787 ft 376 kts 318°
2026-04-23 19:50 52.99716 15.70171 29185 ft 379 kts 318°
2026-04-23 19:50 53.01498 15.66930 29573 ft 381 kts 318°
2026-04-23 19:50 53.03290 15.63666 29953 ft 383 kts 318°
2026-04-23 19:50 53.05092 15.60381 30299 ft 386 kts 318°
2026-04-23 19:51 53.06901 15.57076 30603 ft 388 kts 318°
2026-04-23 19:51 53.08724 15.53742 30897 ft 390 kts 318°
2026-04-23 19:51 53.10555 15.50389 31199 ft 393 kts 318°
2026-04-23 19:51 53.12392 15.47021 31491 ft 395 kts 317°
2026-04-23 19:52 53.13617 15.44772 31685 ft 396 kts 317°
2026-04-23 19:52 53.16076 15.40251 32060 ft 399 kts 317°
2026-04-23 19:52 53.17967 15.36771 32334 ft 401 kts 317°
2026-04-23 19:52 53.19819 15.33357 32598 ft 403 kts 317°
2026-04-23 19:53 53.21701 15.29882 32865 ft 405 kts 317°
2026-04-23 19:53 53.22338 15.28705 32960 ft 405 kts 317°
2026-04-23 19:53 53.23699 15.26187 33133 ft 407 kts 317°
2026-04-23 19:54 53.25598 15.22669 33382 ft 409 kts 317°
2026-04-23 19:54 53.26779 15.20480 33534 ft 410 kts 317°
2026-04-23 19:54 53.28346 15.17573 33734 ft 412 kts 317°
2026-04-23 19:55 53.30259 15.14018 34061 ft 411 kts 317°
2026-04-23 19:55 53.32171 15.10459 34368 ft 411 kts 317°
2026-04-23 19:55 53.34081 15.06901 34642 ft 410 kts 317°
2026-04-23 19:55 53.35981 15.03354 34933 ft 410 kts 317°
2026-04-23 19:56 53.37883 14.99800 35210 ft 409 kts 317°
2026-04-23 19:56 53.39784 14.96242 35485 ft 409 kts 316°
2026-04-23 19:56 53.41675 14.92698 35750 ft 408 kts 316°
2026-04-23 19:56 53.43561 14.89157 36009 ft 408 kts 316°
2026-04-23 19:57 53.45425 14.85653 36264 ft 407 kts 316°
2026-04-23 19:57 53.47308 14.82109 36502 ft 407 kts 316°
2026-04-23 19:57 53.49188 14.78564 36734 ft 406 kts 316°
2026-04-23 19:57 53.51067 14.75016 36970 ft 406 kts 316°
2026-04-23 19:58 53.52941 14.71473 37197 ft 405 kts 316°
2026-04-23 19:58 53.54805 14.67944 37421 ft 405 kts 316°
2026-04-23 19:58 53.56679 14.64390 37624 ft 405 kts 316°
2026-04-23 19:58 53.58543 14.60851 37838 ft 404 kts 315°
2026-04-23 19:59 53.60405 14.57309 38019 ft 404 kts 315°
2026-04-23 19:59 53.62242 14.53809 38224 ft 404 kts 315°
2026-04-23 19:59 53.64098 14.50271 38406 ft 403 kts 315°
2026-04-23 19:59 53.65951 14.46732 38598 ft 403 kts 315°
2026-04-23 20:00 53.67807 14.43180 38763 ft 403 kts 315°
2026-04-23 20:00 53.69655 14.39642 38900 ft 402 kts 315°
2026-04-23 20:00 53.71503 14.36097 39011 ft 403 kts 315°
2026-04-23 20:01 53.75208 14.28976 39194 ft 403 kts 315°
2026-04-23 20:01 53.79272 14.22520 39369 ft 402 kts 320°
2026-04-23 20:02 53.83332 14.16074 39521 ft 403 kts 319°
2026-04-23 20:02 53.87403 14.09542 39683 ft 404 kts 319°
2026-04-23 20:03 53.91481 14.02978 39823 ft 405 kts 319°
2026-04-23 20:03 53.95566 13.96381 39992 ft 405 kts 319°
2026-04-23 20:03 53.97574 13.93131 40116 ft 404 kts 319°
2026-04-23 20:04 53.99608 13.89836 40136 ft 405 kts 319°
2026-04-23 20:04 54.03691 13.83205 40138 ft 406 kts 319°
2026-04-23 20:05 54.07087 13.77676 40141 ft 407 kts 319°
2026-04-23 20:05 54.11996 13.70173 40148 ft 406 kts 322°
2026-04-23 20:06 54.16273 13.63973 40141 ft 406 kts 321°
2026-04-23 20:06 54.20567 13.57696 40140 ft 406 kts 321°
2026-04-23 20:07 54.24857 13.51402 40138 ft 407 kts 321°
2026-04-23 20:07 54.29147 13.45090 40140 ft 407 kts 321°
2026-04-23 20:08 54.33406 13.38804 40141 ft 407 kts 321°
2026-04-23 20:08 54.37692 13.32463 40138 ft 407 kts 321°
2026-04-23 20:09 54.41973 13.26108 40133 ft 407 kts 321°
2026-04-23 20:09 54.46256 13.19735 40136 ft 407 kts 321°
2026-04-23 20:10 54.49812 13.14429 40136 ft 407 kts 320°
2026-04-23 20:10 54.54781 13.06991 40136 ft 407 kts 320°
2026-04-23 20:11 54.59053 13.00579 40134 ft 407 kts 320°
2026-04-23 20:11 54.63323 12.94150 40131 ft 407 kts 320°
2026-04-23 20:12 54.67583 12.87717 40129 ft 407 kts 320°
2026-04-23 20:12 54.71815 12.81309 40129 ft 407 kts 320°
2026-04-23 20:13 54.76076 12.74837 40124 ft 407 kts 320°
2026-04-23 20:13 54.80328 12.68362 40121 ft 407 kts 320°
2026-04-23 20:14 54.84579 12.61868 40116 ft 407 kts 320°
2026-04-23 20:14 54.88797 12.55406 40112 ft 407 kts 320°
2026-04-23 20:15 54.93041 12.48886 40110 ft 407 kts 320°
2026-04-23 20:15 54.97282 12.42355 40108 ft 407 kts 319°
2026-04-23 20:16 55.01679 12.36168 40115 ft 406 kts 325°
2026-04-23 20:16 55.06262 12.30402 40112 ft 407 kts 324°
2026-04-23 20:17 55.10793 12.24597 40113 ft 407 kts 324°
2026-04-23 20:17 55.15347 12.18732 40113 ft 407 kts 324°
2026-04-23 20:18 55.19912 12.12843 40113 ft 407 kts 324°
2026-04-23 20:18 55.24502 12.07004 40116 ft 408 kts 324°
2026-04-23 20:19 55.29056 12.01186 40114 ft 408 kts 324°
2026-04-23 20:19 55.33638 11.95314 40117 ft 408 kts 324°
2026-04-23 20:20 55.38225 11.89419 40116 ft 408 kts 324°
2026-04-23 20:20 55.42809 11.83510 40117 ft 408 kts 323°
2026-04-23 20:21 55.47416 11.77812 40107 ft 408 kts 331°
2026-04-23 20:21 55.52358 11.72881 40118 ft 408 kts 329°
2026-04-23 20:22 55.57261 11.67779 40118 ft 409 kts 329°
2026-04-23 20:22 55.62152 11.62650 40127 ft 409 kts 328°
2026-04-23 20:23 55.67036 11.57509 40130 ft 409 kts 328°
2026-04-23 20:23 55.71928 11.52346 40138 ft 409 kts 328°
2026-04-23 20:24 55.76783 11.47206 40138 ft 409 kts 328°
2026-04-23 20:24 55.81668 11.42019 40139 ft 409 kts 328°
2026-04-23 20:25 55.86555 11.36813 40142 ft 409 kts 328°
2026-04-23 20:25 55.91438 11.31598 40140 ft 410 kts 328°
2026-04-23 20:26 55.96298 11.26391 40150 ft 410 kts 328°
2026-04-23 20:26 56.01192 11.21132 40144 ft 410 kts 328°
2026-04-23 20:27 56.06087 11.15857 40148 ft 411 kts 328°
2026-04-23 20:27 56.10986 11.10562 40148 ft 411 kts 327°
2026-04-23 20:28 56.15492 11.04379 40140 ft 408 kts 311°
2026-04-23 20:28 56.19383 10.97010 40151 ft 410 kts 314°
2026-04-23 20:29 56.23385 10.89691 40137 ft 411 kts 314°
2026-04-23 20:29 56.27384 10.82380 40130 ft 411 kts 314°
2026-04-23 20:30 56.31397 10.75022 40130 ft 411 kts 314°
2026-04-23 20:30 56.37404 10.63962 40128 ft 411 kts 314°
2026-04-23 20:31 56.41377 10.56619 40134 ft 412 kts 313°
2026-04-23 20:31 56.45373 10.49209 40136 ft 412 kts 313°
2026-04-23 20:32 56.49365 10.41782 40142 ft 412 kts 313°
2026-04-23 20:32 56.53361 10.34326 40151 ft 412 kts 313°
2026-04-23 20:33 56.57323 10.26908 40159 ft 412 kts 313°
2026-04-23 20:33 56.61308 10.19422 40158 ft 413 kts 313°
2026-04-23 20:34 56.65292 10.11915 40158 ft 413 kts 313°
2026-04-23 20:34 56.69273 10.04388 40164 ft 413 kts 313°
2026-04-23 20:35 56.72582 9.98114 40165 ft 413 kts 313°
2026-04-23 20:35 56.77205 9.89320 40159 ft 414 kts 312°
2026-04-23 20:36 56.80507 9.83018 40155 ft 414 kts 312°
2026-04-23 20:36 56.84481 9.75411 40149 ft 414 kts 312°
2026-04-23 20:37 56.88448 9.67792 40147 ft 414 kts 312°
2026-04-23 20:37 56.93062 9.58900 40146 ft 414 kts 312°
2026-04-23 20:38 56.96356 9.52529 40145 ft 415 kts 312°
2026-04-23 20:38 57.00315 9.44850 40148 ft 415 kts 311°
2026-04-23 20:39 57.04281 9.37133 40150 ft 415 kts 311°
2026-04-23 20:39 57.08876 9.28156 40155 ft 415 kts 311°
2026-04-23 20:40 57.12190 9.21663 40159 ft 415 kts 311°
2026-04-23 20:40 57.16107 9.13962 40160 ft 415 kts 311°
2026-04-23 20:41 57.20051 9.06185 40158 ft 415 kts 311°
2026-04-23 20:41 57.23994 8.98383 40161 ft 415 kts 311°
2026-04-23 20:42 57.27927 8.90573 40160 ft 416 kts 311°
2026-04-23 20:42 57.31866 8.82724 40162 ft 416 kts 311°
2026-04-23 20:43 57.35796 8.74869 40163 ft 416 kts 311°
2026-04-23 20:43 57.39699 8.67040 40163 ft 416 kts 310°
2026-04-23 20:44 57.43625 8.59139 40167 ft 416 kts 310°
2026-04-23 20:44 57.47547 8.51220 40164 ft 417 kts 310°
2026-04-23 20:45 57.51464 8.43282 40169 ft 417 kts 310°
2026-04-23 20:45 57.55379 8.35321 40168 ft 417 kts 310°
2026-04-23 20:46 57.59292 8.27337 40168 ft 417 kts 310°
2026-04-23 20:46 57.63200 8.19337 40175 ft 417 kts 310°
2026-04-23 20:47 57.67107 8.11310 40173 ft 418 kts 310°
2026-04-23 20:47 57.70977 8.03331 40173 ft 418 kts 310°
2026-04-23 20:48 57.74880 7.95258 40177 ft 418 kts 310°
2026-04-23 20:48 57.78773 7.87176 40180 ft 418 kts 309°
2026-04-23 20:49 57.82665 7.79068 40186 ft 418 kts 309°
2026-04-23 20:49 57.86531 7.70989 40185 ft 418 kts 309°
2026-04-23 20:50 57.90415 7.62840 40187 ft 419 kts 309°
2026-04-23 20:50 57.94298 7.54667 40193 ft 419 kts 309°
2026-04-23 20:51 57.98175 7.46475 40194 ft 419 kts 309°
2026-04-23 20:51 58.02021 7.38323 40202 ft 419 kts 309°
2026-04-23 20:52 58.05891 7.30090 40207 ft 419 kts 309°
2026-04-23 20:52 58.09761 7.21828 40209 ft 419 kts 309°
2026-04-23 20:53 58.13593 7.13618 40210 ft 419 kts 309°
2026-04-23 20:53 58.17448 7.05329 40213 ft 419 kts 308°
2026-04-23 20:54 58.21300 6.97018 40220 ft 420 kts 308°
2026-04-23 20:54 58.25146 6.88689 40222 ft 420 kts 308°
2026-04-23 20:55 58.28968 6.80384 40231 ft 420 kts 308°
2026-04-23 20:55 58.32816 6.71993 40237 ft 421 kts 308°
2026-04-23 20:56 58.36663 6.63571 40243 ft 422 kts 308°
2026-04-23 20:56 58.40509 6.55122 40249 ft 423 kts 308°
2026-04-23 20:57 58.44335 6.46687 40263 ft 424 kts 308°
2026-04-23 20:57 58.48188 6.38160 40269 ft 425 kts 308°
2026-04-23 20:58 58.52046 6.29592 40277 ft 425 kts 308°
2026-04-23 20:58 58.55907 6.20985 40285 ft 426 kts 308°
2026-04-23 20:59 58.59737 6.12415 40299 ft 426 kts 308°
2026-04-23 20:59 58.63584 6.03776 40314 ft 426 kts 308°
2026-04-23 21:00 58.67429 5.95109 40323 ft 426 kts 308°
2026-04-23 21:00 58.71270 5.86419 40341 ft 426 kts 308°
2026-04-23 21:01 58.75106 5.77707 40348 ft 426 kts 308°
2026-04-23 21:01 58.78905 5.69048 40342 ft 426 kts 308°
2026-04-23 21:02 58.82719 5.60320 40346 ft 426 kts 307°
2026-04-23 21:02 58.86527 5.51575 40347 ft 426 kts 307°
2026-04-23 21:03 58.90312 5.42852 40349 ft 426 kts 307°
2026-04-23 21:03 58.94107 5.34071 40350 ft 426 kts 307°
2026-04-23 21:04 58.97904 5.25250 40348 ft 426 kts 307°
2026-04-23 21:04 59.01696 5.16410 40351 ft 426 kts 307°
2026-04-23 21:05 59.05449 5.07628 40355 ft 425 kts 307°
2026-04-23 21:05 59.09218 4.98774 40360 ft 425 kts 307°
2026-04-23 21:06 59.12984 4.89896 40360 ft 425 kts 307°
2026-04-23 21:06 59.16745 4.80994 40362 ft 425 kts 307°
2026-04-23 21:07 59.20495 4.72081 40367 ft 426 kts 307°
2026-04-23 21:07 59.24224 4.63188 40369 ft 426 kts 307°
2026-04-23 21:08 59.27972 4.54215 40381 ft 426 kts 307°
2026-04-23 21:08 59.31711 4.45228 40386 ft 426 kts 307°
2026-04-23 21:09 59.35419 4.36281 40388 ft 426 kts 307°
2026-04-23 21:09 59.39148 4.27250 40393 ft 426 kts 307°
2026-04-23 21:10 59.42877 4.18182 40399 ft 426 kts 307°
2026-04-23 21:10 59.46593 4.09111 40396 ft 427 kts 307°
2026-04-23 21:11 59.50289 4.00053 40399 ft 427 kts 307°
2026-04-23 21:11 59.53997 3.90933 40403 ft 427 kts 307°
2026-04-23 21:12 59.57710 3.81762 40404 ft 428 kts 307°
2026-04-23 21:12 59.61418 3.72567 40407 ft 428 kts 307°
2026-04-23 21:13 59.65096 3.63410 40411 ft 428 kts 307°
2026-04-23 21:13 59.68793 3.54171 40410 ft 429 kts 307°
2026-04-23 21:14 59.72489 3.44899 40411 ft 429 kts 307°
2026-04-23 21:14 59.76178 3.35605 40414 ft 429 kts 307°
2026-04-23 21:15 59.79838 3.26349 40420 ft 429 kts 306°
2026-04-23 21:15 59.83515 3.17012 40421 ft 429 kts 306°
2026-04-23 21:16 59.87193 3.07637 40425 ft 429 kts 306°
2026-04-23 21:16 59.90860 2.98249 40424 ft 430 kts 306°
2026-04-23 21:17 59.94501 2.88892 40428 ft 430 kts 306°
2026-04-23 21:17 59.98155 2.79464 40427 ft 430 kts 306°
2026-04-23 21:18 60.01805 2.70005 40429 ft 430 kts 306°
2026-04-23 21:18 60.05449 2.60528 40430 ft 430 kts 306°
2026-04-23 21:19 60.09060 2.51094 40431 ft 430 kts 306°
2026-04-23 21:19 60.12686 2.41586 40436 ft 429 kts 305°
2026-04-23 21:20 60.16310 2.32043 40435 ft 429 kts 305°
2026-04-23 21:20 60.19922 2.22490 40435 ft 429 kts 305°
2026-04-23 21:21 60.23505 2.12978 40437 ft 429 kts 305°
2026-04-23 21:21 60.27106 2.03378 40436 ft 429 kts 305°
2026-04-23 21:22 60.30697 1.93765 40443 ft 429 kts 305°
2026-04-23 21:22 60.34281 1.84132 40441 ft 429 kts 305°
2026-04-23 21:23 60.37835 1.74538 40442 ft 429 kts 304°
2026-04-23 21:23 60.41406 1.64859 40447 ft 430 kts 304°
2026-04-23 21:24 60.44974 1.55149 40444 ft 430 kts 304°
2026-04-23 21:24 60.48536 1.45413 40448 ft 430 kts 304°
2026-04-23 21:25 60.52067 1.35722 40444 ft 430 kts 304°
2026-04-23 21:25 60.55617 1.25938 40447 ft 430 kts 304°
2026-04-23 21:26 60.59161 1.16130 40451 ft 430 kts 304°
2026-04-23 21:26 60.62696 1.06303 40453 ft 431 kts 304°
2026-04-23 21:27 60.66206 0.96506 40454 ft 431 kts 304°
2026-04-23 21:27 60.69732 0.86623 40455 ft 431 kts 304°
2026-04-23 21:28 60.73249 0.76721 40453 ft 431 kts 304°
2026-04-23 21:28 60.76761 0.66792 40452 ft 431 kts 304°
2026-04-23 21:29 60.80242 0.56910 40453 ft 431 kts 304°
2026-04-23 21:29 60.83742 0.46932 40453 ft 431 kts 304°
2026-04-23 21:30 60.87229 0.36942 40455 ft 431 kts 304°
2026-04-23 21:30 60.90716 0.26914 40458 ft 431 kts 304°
2026-04-23 21:31 60.94165 0.16953 40455 ft 431 kts 303°
2026-04-23 21:31 60.97623 0.06877 40454 ft 431 kts 301°
2026-04-23 21:32 60.98989 0.01424 40448 ft 427 kts 288°
2026-04-23 21:32 60.99669 -0.04508 40455 ft 425 kts 276°
2026-04-23 21:32 61.00194 -0.16674 40459 ft 427 kts 273°
2026-04-23 21:33 61.00483 -0.28829 40458 ft 427 kts 272°
2026-04-23 21:33 61.00696 -0.41071 40461 ft 427 kts 272°
2026-04-23 21:34 61.00881 -0.53315 40460 ft 428 kts 271°
2026-04-23 21:34 61.01054 -0.65566 40464 ft 428 kts 271°
2026-04-23 21:35 61.01216 -0.77824 40465 ft 428 kts 271°
2026-04-23 21:35 61.01365 -0.89985 40467 ft 428 kts 271°
2026-04-23 21:36 61.01571 -1.08381 40464 ft 428 kts 271°
2026-04-23 21:37 61.01694 -1.20648 40467 ft 428 kts 271°
2026-04-23 21:37 61.01805 -1.32813 40466 ft 428 kts 271°
2026-04-23 21:38 61.01906 -1.45076 40467 ft 428 kts 271°
2026-04-23 21:38 61.01995 -1.57326 40467 ft 427 kts 271°
2026-04-23 21:39 61.02074 -1.69583 40471 ft 427 kts 271°
2026-04-23 21:39 61.02140 -1.81753 40471 ft 427 kts 270°
2026-04-23 21:40 61.02197 -1.94009 40473 ft 427 kts 270°
2026-04-23 21:40 61.02242 -2.06256 40471 ft 427 kts 270°
2026-04-23 21:41 61.02276 -2.18495 40472 ft 427 kts 270°
2026-04-23 21:41 61.02299 -2.30756 40478 ft 427 kts 270°
2026-04-23 21:42 61.02311 -2.42912 40477 ft 427 kts 270°
2026-04-23 21:42 61.02312 -2.55151 40473 ft 427 kts 270°
2026-04-23 21:43 61.02302 -2.67388 40475 ft 427 kts 270°
2026-04-23 21:43 61.02280 -2.79611 40482 ft 427 kts 270°
2026-04-23 21:44 61.02249 -2.91777 40478 ft 426 kts 270°
2026-04-23 21:44 61.02205 -3.03995 40480 ft 426 kts 270°
2026-04-23 21:45 61.02151 -3.16223 40477 ft 426 kts 270°
2026-04-23 21:45 61.02085 -3.28444 40479 ft 426 kts 269°
2026-04-23 21:46 61.02010 -3.40570 40479 ft 426 kts 269°
2026-04-23 21:46 61.01922 -3.52774 40478 ft 426 kts 269°
2026-04-23 21:47 61.01824 -3.64980 40481 ft 426 kts 269°
2026-04-23 21:47 61.01715 -3.77195 40480 ft 426 kts 269°
2026-04-23 21:48 61.01595 -3.89322 40481 ft 426 kts 269°
2026-04-23 21:48 61.01464 -4.01519 40482 ft 425 kts 269°
2026-04-23 21:49 61.01322 -4.13705 40481 ft 425 kts 269°
2026-04-23 21:49 61.01168 -4.25894 40482 ft 425 kts 269°
2026-04-23 21:50 61.01004 -4.38073 40482 ft 425 kts 269°
2026-04-23 21:50 61.00831 -4.50156 40482 ft 425 kts 269°
2026-04-23 21:51 61.00649 -4.62337 40483 ft 425 kts 269°
2026-04-23 21:51 61.00457 -4.74488 40482 ft 424 kts 268°
2026-04-23 21:52 61.00257 -4.86558 40480 ft 424 kts 268°
2026-04-23 21:52 61.00057 -4.98704 40479 ft 424 kts 271°
2026-04-23 21:53 61.00310 -5.10813 40476 ft 423 kts 272°
2026-04-23 21:53 61.00524 -5.22938 40481 ft 423 kts 272°
2026-04-23 21:54 61.00718 -5.34967 40481 ft 423 kts 272°
2026-04-23 21:54 61.00902 -5.47078 40482 ft 422 kts 272°
2026-04-23 21:55 61.01076 -5.59180 40482 ft 422 kts 272°
2026-04-23 21:55 61.01238 -5.71279 40482 ft 422 kts 271°
2026-04-23 21:56 61.01389 -5.83308 40481 ft 422 kts 271°
2026-04-23 21:56 61.01530 -5.95407 40481 ft 422 kts 271°
2026-04-23 21:57 61.01660 -6.07510 40483 ft 422 kts 271°
2026-04-23 21:57 61.01779 -6.19610 40482 ft 422 kts 271°
2026-04-23 21:58 61.01887 -6.31708 40479 ft 422 kts 271°
2026-04-23 21:58 61.01984 -6.43725 40480 ft 422 kts 271°
2026-04-23 21:59 61.02071 -6.55821 40480 ft 422 kts 271°
2026-04-23 21:59 61.02146 -6.67920 40480 ft 422 kts 271°
2026-04-23 22:00 61.02240 -6.86062 40476 ft 422 kts 270°
2026-04-23 22:00 61.02288 -6.98059 40476 ft 422 kts 270°
2026-04-23 22:01 61.02326 -7.10159 40475 ft 422 kts 270°
2026-04-23 22:01 61.02354 -7.22247 40469 ft 422 kts 270°
2026-04-23 22:02 61.02369 -7.34350 40477 ft 422 kts 270°
2026-04-23 22:02 61.02375 -7.46350 40479 ft 422 kts 270°
2026-04-23 22:03 61.02370 -7.58447 40477 ft 422 kts 270°
2026-04-23 22:03 61.02354 -7.70554 40477 ft 422 kts 270°
2026-04-23 22:04 61.02327 -7.82678 40473 ft 423 kts 269°
2026-04-23 22:04 61.02290 -7.94707 40475 ft 423 kts 269°
2026-04-23 22:05 61.02241 -8.06840 40472 ft 423 kts 269°
2026-04-23 22:05 61.02182 -8.18972 40470 ft 423 kts 269°
2026-04-23 22:06 61.02111 -8.31126 40473 ft 424 kts 269°
2026-04-23 22:06 61.02030 -8.43185 40467 ft 424 kts 269°
2026-04-23 22:07 61.01938 -8.55355 40469 ft 424 kts 269°
2026-04-23 22:07 61.01834 -8.67520 40471 ft 425 kts 268°
2026-04-23 22:08 61.01720 -8.79713 40469 ft 425 kts 268°
2026-04-23 22:08 61.01595 -8.91814 40469 ft 426 kts 268°
2026-04-23 22:09 61.01458 -9.04028 40469 ft 426 kts 268°
2026-04-23 22:09 61.01311 -9.16230 40466 ft 426 kts 268°
2026-04-23 22:10 61.01152 -9.28455 40467 ft 427 kts 268°
2026-04-23 22:10 61.00982 -9.40690 40468 ft 427 kts 268°
2026-04-23 22:11 61.00802 -9.52867 40466 ft 428 kts 268°
2026-04-23 22:11 61.00614 -9.65118 40465 ft 428 kts 267°
2026-04-23 22:12 61.00415 -9.77409 40462 ft 429 kts 267°
2026-04-23 22:12 61.00207 -9.89615 40459 ft 429 kts 267°
2026-04-23 22:13 60.99847 -10.01898 40457 ft 429 kts 260°
2026-04-23 22:13 60.99015 -10.14073 40465 ft 430 kts 262°
2026-04-23 22:14 60.98248 -10.26299 40460 ft 431 kts 262°
2026-04-23 22:14 60.97485 -10.38449 40453 ft 431 kts 262°
2026-04-23 22:15 60.96706 -10.50693 40459 ft 432 kts 262°
2026-04-23 22:15 60.95915 -10.62947 40458 ft 432 kts 262°
2026-04-23 22:16 60.95111 -10.75221 40455 ft 433 kts 261°
2026-04-23 22:16 60.94302 -10.87403 40461 ft 433 kts 261°
2026-04-23 22:17 60.93473 -10.99691 40452 ft 434 kts 261°
2026-04-23 22:17 60.92634 -11.11985 40450 ft 434 kts 261°
2026-04-23 22:18 60.91782 -11.24280 40459 ft 435 kts 261°
2026-04-23 22:18 60.90923 -11.36508 40449 ft 435 kts 261°
2026-04-23 22:19 60.90047 -11.48829 40449 ft 436 kts 260°
2026-04-23 22:19 60.89157 -11.61162 40447 ft 437 kts 260°
2026-04-23 22:20 60.88256 -11.73481 40451 ft 437 kts 260°
2026-04-23 22:20 60.87348 -11.85745 40447 ft 437 kts 260°
2026-04-23 22:21 60.86423 -11.98083 40447 ft 438 kts 260°
2026-04-23 22:21 60.85485 -12.10429 40442 ft 438 kts 260°
2026-04-23 22:22 60.84534 -12.22792 40444 ft 439 kts 259°
2026-04-23 22:22 60.83570 -12.35177 40442 ft 439 kts 259°
2026-04-23 22:23 60.82601 -12.47461 40441 ft 440 kts 259°
2026-04-23 22:23 60.81614 -12.59830 40436 ft 440 kts 259°
2026-04-23 22:24 60.80613 -12.72229 40435 ft 441 kts 259°
2026-04-23 22:24 60.79601 -12.84607 40433 ft 441 kts 259°
2026-04-23 22:25 60.78582 -12.96922 40432 ft 442 kts 259°
2026-04-23 22:25 60.77544 -13.09328 40431 ft 442 kts 259°
2026-04-23 22:26 60.76494 -13.21724 40429 ft 443 kts 259°
2026-04-23 22:26 60.75432 -13.34127 40428 ft 443 kts 258°
2026-04-23 22:27 60.74363 -13.46465 40429 ft 444 kts 258°
2026-04-23 22:27 60.73276 -13.58876 40427 ft 444 kts 258°
2026-04-23 22:28 60.72175 -13.71300 40423 ft 444 kts 258°
2026-04-23 22:28 60.71069 -13.83648 40419 ft 437 kts 258°
2026-04-23 22:29 60.69978 -13.95707 40420 ft 434 kts 258°
2026-04-23 22:29 60.68869 -14.07821 40420 ft 434 kts 258°
2026-04-23 22:30 60.67749 -14.19929 40417 ft 435 kts 258°
2026-04-23 22:30 60.66617 -14.32047 40417 ft 435 kts 258°
2026-04-23 22:31 60.65473 -14.44165 40413 ft 435 kts 258°
2026-04-23 22:31 60.64325 -14.56206 40413 ft 436 kts 257°
2026-04-23 22:32 60.63156 -14.68331 40408 ft 436 kts 257°
2026-04-23 22:32 60.61976 -14.80463 40408 ft 437 kts 257°
2026-04-23 22:33 60.60784 -14.92586 40407 ft 437 kts 257°
2026-04-23 22:33 60.59589 -15.04623 40405 ft 437 kts 257°
2026-04-23 22:34 60.58374 -15.16745 40407 ft 438 kts 257°
2026-04-23 22:34 60.57146 -15.28877 40408 ft 438 kts 257°
2026-04-23 22:35 60.55907 -15.41000 40407 ft 438 kts 257°
2026-04-23 22:35 60.54664 -15.53037 40404 ft 439 kts 257°
2026-04-23 22:36 60.53402 -15.65154 40399 ft 439 kts 257°
2026-04-23 22:36 60.52127 -15.77284 40401 ft 439 kts 256°
2026-04-23 22:37 60.50840 -15.89407 40392 ft 440 kts 256°
2026-04-23 22:37 60.49541 -16.01529 40392 ft 440 kts 256°
2026-04-23 22:38 60.48239 -16.13568 40395 ft 440 kts 256°
2026-04-23 22:38 60.46918 -16.25674 40392 ft 440 kts 256°
2026-04-23 22:39 60.45581 -16.37808 40395 ft 441 kts 256°
2026-04-23 22:39 60.44235 -16.49920 40390 ft 441 kts 256°
2026-04-23 22:40 60.42886 -16.61953 40390 ft 441 kts 256°
2026-04-23 22:41 60.40828 -16.80110 40389 ft 442 kts 256°
2026-04-23 22:41 60.39442 -16.92202 40386 ft 442 kts 256°
2026-04-23 22:42 60.38040 -17.04321 40383 ft 442 kts 255°
2026-04-23 22:42 60.36640 -17.16329 40385 ft 442 kts 255°
2026-04-23 22:43 60.35216 -17.28436 40380 ft 443 kts 255°
2026-04-23 22:43 60.33781 -17.40526 40377 ft 443 kts 255°
2026-04-23 22:44 60.32344 -17.52536 40379 ft 443 kts 255°
2026-04-23 22:44 60.30886 -17.64614 40378 ft 443 kts 255°
2026-04-23 22:45 60.29416 -17.76699 40373 ft 444 kts 255°
2026-04-23 22:45 60.27935 -17.88766 40371 ft 444 kts 255°
2026-04-23 22:46 60.26451 -18.00758 40371 ft 444 kts 255°
2026-04-23 22:46 60.24946 -18.12821 40372 ft 444 kts 254°
2026-04-23 22:47 60.23430 -18.24878 40364 ft 444 kts 254°
2026-04-23 22:47 60.21903 -18.36926 40366 ft 445 kts 254°
2026-04-23 22:48 60.20373 -18.48890 40361 ft 445 kts 254°
2026-04-23 22:48 60.18822 -18.60936 40363 ft 445 kts 254°
2026-04-23 22:49 60.17258 -18.72976 40364 ft 445 kts 254°
2026-04-23 22:49 60.15684 -18.85003 40362 ft 446 kts 253°
2026-04-23 22:50 60.14107 -18.96959 40363 ft 446 kts 253°
2026-04-23 22:50 60.12512 -19.08972 40356 ft 446 kts 253°
2026-04-23 22:51 60.10906 -19.20991 40356 ft 446 kts 253°
2026-04-23 22:51 60.09288 -19.33012 40347 ft 447 kts 253°
2026-04-23 22:52 60.07659 -19.45037 40348 ft 447 kts 253°
2026-04-23 22:52 60.06031 -19.56959 40353 ft 447 kts 253°
2026-04-23 22:53 60.04380 -19.68974 40343 ft 448 kts 253°
2026-04-23 22:53 60.02719 -19.80966 40354 ft 448 kts 253°
2026-04-23 22:54 60.01056 -19.92896 40340 ft 448 kts 253°
2026-04-23 22:54 59.99740 -20.05058 40351 ft 450 kts 261°
2026-04-23 22:55 59.98952 -20.17460 40337 ft 451 kts 262°
2026-04-23 22:55 59.98182 -20.29882 40334 ft 451 kts 261°
2026-04-23 22:56 59.97410 -20.42237 40331 ft 451 kts 261°
2026-04-23 22:56 59.96622 -20.54657 40330 ft 452 kts 261°
2026-04-23 22:57 59.95820 -20.67106 40334 ft 452 kts 261°
2026-04-23 22:57 59.95007 -20.79525 40330 ft 452 kts 261°
2026-04-23 22:58 59.94181 -20.91980 40331 ft 453 kts 261°
2026-04-23 22:58 59.93348 -21.04343 40329 ft 453 kts 261°
2026-04-23 22:59 59.92497 -21.16804 40328 ft 453 kts 261°
2026-04-23 22:59 59.91634 -21.29255 40325 ft 454 kts 261°
2026-04-23 23:00 59.90763 -21.41647 40322 ft 454 kts 261°
2026-04-23 23:00 59.89875 -21.54105 40320 ft 454 kts 260°
2026-04-23 23:01 59.88976 -21.66565 40319 ft 455 kts 260°
2026-04-23 23:01 59.88062 -21.79046 40318 ft 455 kts 260°
2026-04-23 23:02 59.87135 -21.91525 40320 ft 456 kts 260°
2026-04-23 23:02 59.86204 -22.03916 40319 ft 456 kts 260°
2026-04-23 23:03 59.85254 -22.16396 40315 ft 456 kts 260°
2026-04-23 23:03 59.84292 -22.28857 40312 ft 456 kts 260°
2026-04-23 23:04 59.83316 -22.41346 40310 ft 457 kts 260°
2026-04-23 23:04 59.82335 -22.53737 40311 ft 457 kts 259°
2026-04-23 23:05 59.81335 -22.66220 40307 ft 458 kts 259°
2026-04-23 23:05 59.80323 -22.78690 40310 ft 458 kts 259°
2026-04-23 23:06 59.79296 -22.91189 40309 ft 458 kts 259°
2026-04-23 23:06 59.78264 -23.03601 40308 ft 459 kts 259°
2026-04-23 23:07 59.77215 -23.16078 40302 ft 459 kts 259°
2026-04-23 23:07 59.76152 -23.28563 40301 ft 459 kts 259°
2026-04-23 23:08 59.75076 -23.41061 40302 ft 460 kts 259°
2026-04-23 23:08 59.73988 -23.53554 40299 ft 460 kts 259°
2026-04-23 23:09 59.72886 -23.66046 40300 ft 460 kts 259°
2026-04-23 23:09 59.71779 -23.78458 40295 ft 460 kts 259°
2026-04-23 23:10 59.70845 -23.88832 40294 ft 461 kts 258°
2026-04-23 23:10 59.69515 -24.03437 40290 ft 461 kts 258°
2026-04-23 23:11 59.68364 -24.15924 40289 ft 461 kts 258°
2026-04-23 23:11 59.67207 -24.28329 40291 ft 463 kts 259°
2026-04-23 23:12 59.66023 -24.40911 40288 ft 466 kts 259°
2026-04-23 23:12 59.64825 -24.53487 40286 ft 466 kts 259°
2026-04-23 23:13 59.63615 -24.66069 40282 ft 466 kts 259°
2026-04-23 23:13 59.62399 -24.78558 40285 ft 466 kts 259°
2026-04-23 23:14 59.61164 -24.91129 40280 ft 466 kts 259°
2026-04-23 23:14 59.59914 -25.03712 40280 ft 466 kts 259°
2026-04-23 23:15 59.58652 -25.16279 40276 ft 467 kts 258°
2026-04-23 23:15 59.57388 -25.28744 40273 ft 467 kts 258°
2026-04-23 23:16 59.56102 -25.41300 40276 ft 467 kts 258°
2026-04-23 23:16 59.54806 -25.53830 40271 ft 467 kts 258°
2026-04-23 23:17 59.53495 -25.66380 40270 ft 467 kts 258°
2026-04-23 23:17 59.52181 -25.78833 40268 ft 467 kts 258°
2026-04-23 23:18 59.50847 -25.91348 40268 ft 467 kts 258°
2026-04-23 23:18 59.49503 -26.03842 40267 ft 467 kts 258°
2026-04-23 23:19 59.48143 -26.16351 40263 ft 467 kts 258°
2026-04-23 23:19 59.46782 -26.28760 40262 ft 467 kts 258°
2026-04-23 23:20 59.45400 -26.41245 40259 ft 467 kts 257°
2026-04-23 23:20 59.44008 -26.53702 40258 ft 467 kts 257°
2026-04-23 23:21 59.42601 -26.66174 40255 ft 467 kts 257°
2026-04-23 23:21 59.41192 -26.78547 40252 ft 467 kts 257°
2026-04-23 23:22 59.39763 -26.90983 40254 ft 467 kts 256°
2026-04-23 23:22 59.38324 -27.03391 40248 ft 467 kts 256°
2026-04-23 23:23 59.36870 -27.15820 40247 ft 467 kts 256°
2026-04-23 23:23 59.35404 -27.28236 40248 ft 467 kts 256°
2026-04-23 23:24 59.33937 -27.40559 40246 ft 468 kts 256°
2026-04-23 23:24 59.32448 -27.52947 40242 ft 468 kts 256°
2026-04-23 23:25 59.30945 -27.65345 40239 ft 468 kts 255°
2026-04-23 23:25 59.29432 -27.77729 40239 ft 468 kts 255°
2026-04-23 23:26 59.27914 -27.90033 40238 ft 468 kts 255°
2026-04-23 23:26 59.26377 -28.02393 40238 ft 468 kts 255°
2026-04-23 23:27 59.24825 -28.14768 40236 ft 469 kts 255°
2026-04-23 23:27 59.23262 -28.27119 40237 ft 469 kts 255°
2026-04-23 23:28 59.21696 -28.39396 40235 ft 469 kts 255°
2026-04-23 23:28 59.20109 -28.51735 40231 ft 469 kts 255°
2026-04-23 23:29 59.18508 -28.64076 40224 ft 469 kts 255°
2026-04-23 23:29 59.17170 -28.74320 40224 ft 469 kts 255°
2026-04-23 23:30 59.15281 -28.88656 40225 ft 470 kts 255°
2026-04-23 23:30 59.13645 -29.00973 40222 ft 470 kts 254°
2026-04-23 23:31 59.11999 -29.13277 40221 ft 470 kts 254°
2026-04-23 23:31 59.10623 -29.23510 40222 ft 470 kts 254°
2026-04-23 23:32 59.08686 -29.37804 40218 ft 470 kts 254°
2026-04-23 23:32 59.07280 -29.48096 40222 ft 470 kts 254°
2026-04-23 23:33 59.05601 -29.60308 40216 ft 471 kts 254°
2026-04-23 23:33 59.03901 -29.72582 40214 ft 471 kts 254°
2026-04-23 23:34 59.01912 -29.86833 40214 ft 471 kts 253°
2026-04-23 23:34 59.00468 -29.97101 40211 ft 471 kts 253°
2026-04-23 23:35 58.97944 -30.11007 40207 ft 471 kts 249°
2026-04-23 23:35 58.96157 -30.20950 40209 ft 471 kts 250°
2026-04-23 23:36 58.94013 -30.32944 40203 ft 471 kts 249°
2026-04-23 23:36 58.91861 -30.44905 40200 ft 471 kts 249°
2026-04-23 23:37 58.89713 -30.56777 40203 ft 471 kts 249°
2026-04-23 23:37 58.87538 -30.68718 40203 ft 471 kts 249°
2026-04-23 23:38 58.85349 -30.80668 40200 ft 471 kts 249°
2026-04-23 23:38 58.83151 -30.92585 40197 ft 471 kts 249°
2026-04-23 23:39 58.80941 -31.04498 40187 ft 472 kts 249°
2026-04-23 23:39 58.78733 -31.16322 40185 ft 472 kts 249°
2026-04-23 23:40 58.76500 -31.28210 40193 ft 472 kts 249°
2026-04-23 23:40 58.74255 -31.40084 40192 ft 472 kts 249°
2026-04-23 23:41 58.71999 -31.51947 40187 ft 472 kts 249°
2026-04-23 23:41 58.69736 -31.63772 40184 ft 472 kts 248°
2026-04-23 23:42 58.67474 -31.75523 40189 ft 472 kts 248°
2026-04-23 23:42 58.65181 -31.87361 40183 ft 472 kts 248°
2026-04-23 23:43 58.62880 -31.99166 40186 ft 472 kts 248°
2026-04-23 23:43 58.60584 -32.10879 40177 ft 472 kts 248°
2026-04-23 23:44 58.58264 -32.22647 40176 ft 472 kts 248°
2026-04-23 23:44 58.55929 -32.34416 40172 ft 472 kts 248°
2026-04-23 23:45 58.53586 -32.46158 40175 ft 472 kts 248°
2026-04-23 23:45 58.51231 -32.57889 40170 ft 472 kts 248°
2026-04-23 23:46 58.48881 -32.69525 40168 ft 472 kts 248°
2026-04-23 23:46 58.46502 -32.81243 40168 ft 472 kts 248°
2026-04-23 23:47 58.44117 -32.92915 40165 ft 472 kts 247°
2026-04-23 23:47 58.41716 -33.04602 40165 ft 473 kts 247°
2026-04-23 23:48 58.39324 -33.16175 40164 ft 473 kts 247°
2026-04-23 23:48 58.36902 -33.27831 40156 ft 473 kts 247°
2026-04-23 23:49 58.33251 -33.45266 40155 ft 473 kts 247°
2026-04-23 23:49 58.30801 -33.56889 40158 ft 473 kts 247°
2026-04-23 23:50 58.28363 -33.68385 40152 ft 473 kts 246°
2026-04-23 23:50 58.25895 -33.79964 40154 ft 473 kts 246°
2026-04-23 23:51 58.23416 -33.91521 40153 ft 473 kts 246°
2026-04-23 23:51 58.20925 -34.03073 40149 ft 473 kts 246°
2026-04-23 23:52 58.18443 -34.14521 40148 ft 473 kts 246°
2026-04-23 23:52 58.15930 -34.26047 40146 ft 473 kts 246°
2026-04-23 23:53 58.13409 -34.37547 40145 ft 473 kts 246°
2026-04-23 23:53 58.10879 -34.49026 40144 ft 473 kts 246°
2026-04-23 23:54 58.08336 -34.60496 40143 ft 473 kts 246°
2026-04-23 23:54 58.05797 -34.71886 40140 ft 474 kts 246°
2026-04-23 23:55 58.03230 -34.83343 40142 ft 474 kts 245°
2026-04-23 23:55 58.00654 -34.94776 40145 ft 474 kts 245°
2026-04-23 23:56 57.98084 -35.06120 40139 ft 474 kts 245°
2026-04-23 23:56 57.95486 -35.17528 40137 ft 474 kts 245°
2026-04-23 23:57 57.92881 -35.28906 40133 ft 474 kts 245°
2026-04-23 23:57 57.90263 -35.40277 40139 ft 474 kts 245°
2026-04-23 23:58 57.87649 -35.51573 40137 ft 474 kts 245°
2026-04-23 23:58 57.85008 -35.62925 40135 ft 474 kts 245°
2026-04-23 23:59 57.82358 -35.74255 40130 ft 474 kts 245°
2026-04-23 23:59 57.79694 -35.85584 40131 ft 475 kts 245°
2026-04-24 00:00 57.77025 -35.96875 40136 ft 475 kts 245°
2026-04-24 00:00 57.74357 -36.08105 40132 ft 475 kts 244°
2026-04-24 00:01 57.71663 -36.19382 40125 ft 475 kts 244°
2026-04-24 00:01 57.68960 -36.30643 40128 ft 475 kts 244°
2026-04-24 00:02 57.66245 -36.41891 40124 ft 475 kts 244°
2026-04-24 00:02 57.63539 -36.53044 40126 ft 475 kts 244°
2026-04-24 00:03 57.60810 -36.64237 40117 ft 474 kts 244°
2026-04-24 00:03 57.58068 -36.75424 40119 ft 474 kts 244°
2026-04-24 00:04 57.55315 -36.86601 40119 ft 474 kts 244°
2026-04-24 00:04 57.52582 -36.97639 40117 ft 474 kts 244°
2026-04-24 00:05 57.49811 -37.08778 40117 ft 474 kts 244°
2026-04-24 00:05 57.47036 -37.19872 40113 ft 474 kts 243°
2026-04-24 00:06 57.44251 -37.30954 40112 ft 473 kts 243°
2026-04-24 00:06 57.41477 -37.41932 40111 ft 473 kts 243°
2026-04-24 00:07 57.38671 -37.52986 40112 ft 473 kts 243°
2026-04-24 00:07 57.35862 -37.63997 40110 ft 473 kts 243°
2026-04-24 00:08 57.33042 -37.74995 40107 ft 473 kts 243°
2026-04-24 00:08 57.30233 -37.85897 40109 ft 472 kts 243°
2026-04-24 00:09 57.27397 -37.96850 40106 ft 472 kts 243°
2026-04-24 00:09 57.24551 -38.07788 40107 ft 472 kts 243°
2026-04-24 00:10 57.21698 -38.18708 40107 ft 472 kts 243°
2026-04-24 00:10 57.18859 -38.29531 40105 ft 472 kts 243°
2026-04-24 00:11 57.15996 -38.40395 40107 ft 472 kts 243°
2026-04-24 00:11 57.13121 -38.51254 40104 ft 472 kts 242°
2026-04-24 00:12 57.10235 -38.62106 40097 ft 471 kts 242°
2026-04-24 00:12 57.07364 -38.72854 40102 ft 472 kts 242°
2026-04-24 00:13 57.04463 -38.83664 40095 ft 472 kts 242°
2026-04-24 00:13 57.01553 -38.94459 40103 ft 472 kts 242°
2026-04-24 00:14 56.98235 -39.04681 40095 ft 470 kts 234°
2026-04-24 00:14 56.94581 -39.14600 40095 ft 470 kts 233°
2026-04-24 00:15 56.90897 -39.24479 40096 ft 470 kts 233°
2026-04-24 00:15 56.87207 -39.34332 40097 ft 470 kts 233°
2026-04-24 00:16 56.83510 -39.44163 40091 ft 470 kts 233°
2026-04-24 00:16 56.79829 -39.53912 40088 ft 469 kts 233°
2026-04-24 00:17 56.76115 -39.63710 40091 ft 469 kts 233°
2026-04-24 00:17 56.72394 -39.73486 40087 ft 469 kts 233°
2026-04-24 00:18 56.68670 -39.83232 40088 ft 469 kts 233°
2026-04-24 00:18 56.64964 -39.92888 40081 ft 469 kts 233°
2026-04-24 00:19 56.61228 -40.02587 40081 ft 469 kts 233°
2026-04-24 00:19 56.57484 -40.12268 40078 ft 469 kts 233°
2026-04-24 00:20 56.53731 -40.21931 40078 ft 468 kts 233°
2026-04-24 00:20 56.49997 -40.31511 40080 ft 468 kts 232°
2026-04-24 00:21 56.46228 -40.41139 40078 ft 468 kts 232°
2026-04-24 00:21 56.42456 -40.50738 40078 ft 468 kts 232°
2026-04-24 00:22 56.38678 -40.60315 40073 ft 468 kts 232°
2026-04-24 00:22 56.34914 -40.69817 40071 ft 468 kts 232°
2026-04-24 00:23 56.31121 -40.79357 40070 ft 468 kts 232°
2026-04-24 00:23 56.27323 -40.88871 40069 ft 468 kts 232°
2026-04-24 00:24 56.23522 -40.98356 40068 ft 468 kts 232°
2026-04-24 00:24 56.19735 -41.07771 40067 ft 468 kts 232°
2026-04-24 00:25 56.15916 -41.17228 40065 ft 467 kts 232°
2026-04-24 00:25 56.12098 -41.26645 40064 ft 467 kts 232°
2026-04-24 00:26 56.08270 -41.36052 40062 ft 467 kts 232°
2026-04-24 00:26 56.04462 -41.45371 40060 ft 467 kts 232°
2026-04-24 00:27 56.00620 -41.54740 40058 ft 467 kts 231°
2026-04-24 00:27 55.96778 -41.64073 40060 ft 467 kts 231°
2026-04-24 00:28 55.92926 -41.73393 40055 ft 466 kts 231°
2026-04-24 00:28 55.89097 -41.82623 40057 ft 466 kts 231°
2026-04-24 00:29 55.85238 -41.91891 40054 ft 466 kts 231°
2026-04-24 00:29 55.81371 -42.01140 40052 ft 466 kts 231°
2026-04-24 00:30 55.77499 -42.10371 40053 ft 466 kts 231°
2026-04-24 00:30 55.73643 -42.19525 40050 ft 465 kts 231°
2026-04-24 00:31 55.69763 -42.28704 40050 ft 465 kts 231°
2026-04-24 00:31 55.65874 -42.37868 40046 ft 465 kts 231°
2026-04-24 00:32 55.61980 -42.47011 40042 ft 465 kts 231°
2026-04-24 00:32 55.58080 -42.56135 40045 ft 465 kts 231°
2026-04-24 00:33 55.54199 -42.65180 40046 ft 465 kts 231°
2026-04-24 00:33 55.50289 -42.74258 40041 ft 464 kts 231°
2026-04-24 00:34 55.46377 -42.83308 40040 ft 464 kts 230°
2026-04-24 00:34 55.42456 -42.92345 40037 ft 464 kts 230°
2026-04-24 00:35 55.38557 -43.01299 40036 ft 464 kts 230°
2026-04-24 00:35 55.34622 -43.10303 40036 ft 464 kts 230°
2026-04-24 00:36 55.30687 -43.19272 40034 ft 464 kts 230°
2026-04-24 00:36 55.26746 -43.28224 40032 ft 463 kts 230°
2026-04-24 00:37 55.22826 -43.37096 40030 ft 463 kts 230°
2026-04-24 00:37 55.18868 -43.46020 40032 ft 463 kts 230°
2026-04-24 00:38 55.14910 -43.54914 40032 ft 463 kts 230°
2026-04-24 00:38 55.10946 -43.63787 40028 ft 463 kts 230°
2026-04-24 00:39 55.07008 -43.72571 40026 ft 463 kts 230°
2026-04-24 00:39 55.03036 -43.81400 40025 ft 463 kts 230°
2026-04-24 00:40 54.99056 -43.90212 40029 ft 463 kts 230°
2026-04-24 00:40 54.95075 -43.98998 40011 ft 462 kts 230°
2026-04-24 00:41 54.91108 -44.07722 40010 ft 462 kts 230°
2026-04-24 00:41 54.87118 -44.16465 40009 ft 462 kts 229°
2026-04-24 00:42 54.83119 -44.25195 40011 ft 462 kts 229°
2026-04-24 00:42 54.79122 -44.33890 40019 ft 461 kts 229°
2026-04-24 00:43 54.75111 -44.42587 40017 ft 461 kts 229°
2026-04-24 00:43 54.71130 -44.51187 40013 ft 461 kts 229°
2026-04-24 00:44 54.67115 -44.59831 40008 ft 461 kts 229°
2026-04-24 00:44 54.63090 -44.68465 40005 ft 461 kts 229°
2026-04-24 00:45 54.59093 -44.77010 40009 ft 461 kts 229°
2026-04-24 00:45 54.55067 -44.85587 40009 ft 460 kts 229°
2026-04-24 00:46 54.51031 -44.94155 40006 ft 460 kts 229°
2026-04-24 00:46 54.46991 -45.02702 40002 ft 460 kts 229°
2026-04-24 00:47 54.42950 -45.11222 40009 ft 460 kts 229°
2026-04-24 00:47 54.38928 -45.19674 39997 ft 460 kts 229°
2026-04-24 00:48 54.34870 -45.28169 40004 ft 460 kts 229°
2026-04-24 00:48 54.30807 -45.36650 39997 ft 460 kts 228°
2026-04-24 00:49 54.26742 -45.45110 39997 ft 460 kts 228°
2026-04-24 00:49 54.22693 -45.53509 39993 ft 460 kts 228°
2026-04-24 00:50 54.18616 -45.61940 39995 ft 460 kts 228°
2026-04-24 00:50 54.14531 -45.70359 39996 ft 461 kts 228°
2026-04-24 00:51 54.10443 -45.78755 39990 ft 460 kts 228°
2026-04-24 00:51 54.06375 -45.87085 39993 ft 460 kts 228°
2026-04-24 00:52 54.02273 -45.95455 39990 ft 460 kts 228°
2026-04-24 00:52 53.98817 -46.04587 39992 ft 463 kts 243°
2026-04-24 00:53 53.96054 -46.14468 39987 ft 464 kts 243°
2026-04-24 00:53 53.93346 -46.24328 39982 ft 464 kts 243°
2026-04-24 00:54 53.90627 -46.34241 39987 ft 463 kts 243°
2026-04-24 00:54 53.87898 -46.44148 39983 ft 463 kts 243°
2026-04-24 00:55 53.85165 -46.54028 39983 ft 463 kts 243°
2026-04-24 00:55 53.82438 -46.63842 39984 ft 463 kts 243°
2026-04-24 00:56 53.79685 -46.73712 39982 ft 463 kts 243°
2026-04-24 00:56 53.76927 -46.83555 39983 ft 463 kts 243°
2026-04-24 00:57 53.74162 -46.93384 39982 ft 463 kts 243°
2026-04-24 00:58 53.70016 -47.08040 39979 ft 463 kts 243°
2026-04-24 00:58 53.67231 -47.17834 39982 ft 463 kts 243°
2026-04-24 00:59 53.64438 -47.27618 39979 ft 463 kts 243°
2026-04-24 00:59 53.61637 -47.37387 39980 ft 463 kts 243°
2026-04-24 01:00 53.58828 -47.47144 39976 ft 463 kts 243°
2026-04-24 01:00 53.56032 -47.56815 39973 ft 463 kts 243°
2026-04-24 01:01 53.53207 -47.66545 39974 ft 463 kts 242°
2026-04-24 01:01 53.50375 -47.76260 39973 ft 463 kts 242°
2026-04-24 01:02 53.47550 -47.85915 39973 ft 463 kts 242°
2026-04-24 01:02 53.44702 -47.95601 39970 ft 463 kts 242°
2026-04-24 01:03 53.41847 -48.05279 39971 ft 463 kts 242°
2026-04-24 01:03 53.38983 -48.14945 39967 ft 463 kts 242°
2026-04-24 01:04 53.36127 -48.24542 39971 ft 463 kts 242°
2026-04-24 01:04 53.33249 -48.34179 39969 ft 463 kts 242°
2026-04-24 01:05 53.30362 -48.43805 39968 ft 463 kts 242°
2026-04-24 01:05 53.27469 -48.53409 39964 ft 463 kts 242°
2026-04-24 01:06 53.24582 -48.62959 39968 ft 463 kts 242°
2026-04-24 01:06 53.21672 -48.72547 39966 ft 463 kts 242°
2026-04-24 01:07 53.18750 -48.82133 39970 ft 463 kts 241°
2026-04-24 01:07 53.15823 -48.91698 39958 ft 463 kts 241°
2026-04-24 01:08 53.12885 -49.01261 39959 ft 463 kts 241°
2026-04-24 01:08 53.09963 -49.10734 39952 ft 463 kts 241°
2026-04-24 01:09 53.07012 -49.20265 39954 ft 463 kts 241°
2026-04-24 01:09 53.04056 -49.29774 39954 ft 463 kts 241°
2026-04-24 01:10 53.01091 -49.39275 39954 ft 463 kts 241°
2026-04-24 01:10 52.98136 -49.48705 39950 ft 463 kts 241°
2026-04-24 01:11 52.95157 -49.58178 39948 ft 463 kts 240°
2026-04-24 01:11 52.92169 -49.67640 39947 ft 463 kts 240°
2026-04-24 01:12 52.89174 -49.77088 39947 ft 463 kts 241°
2026-04-24 01:12 52.86193 -49.86453 39942 ft 463 kts 240°
2026-04-24 01:13 52.83184 -49.95874 39943 ft 463 kts 240°
2026-04-24 01:13 52.80169 -50.05276 39939 ft 462 kts 240°
2026-04-24 01:14 52.77148 -50.14658 39937 ft 462 kts 240°
2026-04-24 01:14 52.74147 -50.23947 39936 ft 462 kts 240°
2026-04-24 01:15 52.71113 -50.33299 39929 ft 462 kts 240°
2026-04-24 01:15 52.68074 -50.42631 39928 ft 462 kts 240°
2026-04-24 01:16 52.65027 -50.51954 39928 ft 462 kts 240°
2026-04-24 01:16 52.61993 -50.61200 39922 ft 462 kts 240°
2026-04-24 01:17 52.58929 -50.70504 39922 ft 462 kts 240°
2026-04-24 01:17 52.55859 -50.79791 39919 ft 462 kts 240°
2026-04-24 01:18 52.52784 -50.89056 39915 ft 462 kts 240°
2026-04-24 01:18 52.49702 -50.98308 39911 ft 462 kts 240°
2026-04-24 01:19 52.46633 -51.07490 39910 ft 462 kts 240°
2026-04-24 01:19 52.43535 -51.16721 39908 ft 462 kts 240°
2026-04-24 01:20 52.40435 -51.25924 39907 ft 462 kts 240°
2026-04-24 01:20 52.37343 -51.35069 39902 ft 462 kts 240°
2026-04-24 01:21 52.34228 -51.44250 39902 ft 462 kts 239°
2026-04-24 01:21 52.31103 -51.53425 39902 ft 462 kts 239°
2026-04-24 01:22 52.27975 -51.62578 39896 ft 462 kts 239°
2026-04-24 01:22 52.24857 -51.71664 39894 ft 462 kts 239°
2026-04-24 01:23 52.21710 -51.80803 39891 ft 462 kts 239°
2026-04-24 01:23 52.18558 -51.89924 39893 ft 462 kts 239°
2026-04-24 01:24 52.15401 -51.99026 39888 ft 462 kts 239°
2026-04-24 01:24 52.12229 -52.08140 39880 ft 462 kts 239°
2026-04-24 01:25 52.09076 -52.17162 39879 ft 463 kts 239°
2026-04-24 01:25 52.05889 -52.26252 39879 ft 463 kts 239°
2026-04-24 01:26 52.02693 -52.35334 39881 ft 463 kts 239°
2026-04-24 01:26 51.99492 -52.44395 39878 ft 463 kts 239°
2026-04-24 01:27 51.96308 -52.53377 39873 ft 463 kts 239°
2026-04-24 01:27 51.93092 -52.62419 39870 ft 463 kts 239°
2026-04-24 01:28 51.89874 -52.71434 39871 ft 463 kts 239°
2026-04-24 01:28 51.86641 -52.80456 39866 ft 463 kts 238°
2026-04-24 01:29 51.83426 -52.89398 39863 ft 463 kts 238°
2026-04-24 01:29 51.80180 -52.98396 39856 ft 463 kts 238°
2026-04-24 01:30 51.76929 -53.07371 39857 ft 464 kts 238°
2026-04-24 01:30 51.73662 -53.16366 39858 ft 464 kts 238°
2026-04-24 01:31 51.70396 -53.25333 39856 ft 464 kts 238°
2026-04-24 01:31 51.67142 -53.34235 39852 ft 464 kts 238°
2026-04-24 01:32 51.63857 -53.43192 39852 ft 465 kts 238°
2026-04-24 01:32 51.60558 -53.52154 39846 ft 465 kts 238°
2026-04-24 01:33 51.57254 -53.61103 39847 ft 466 kts 238°
2026-04-24 01:33 51.53962 -53.69987 39845 ft 466 kts 237°
2026-04-24 01:34 51.50640 -53.78924 39844 ft 466 kts 237°
2026-04-24 01:34 51.47168 -53.87695 39844 ft 466 kts 233°
2026-04-24 01:35 51.43536 -53.96300 39842 ft 466 kts 234°
2026-04-24 01:35 51.39947 -54.04880 39840 ft 467 kts 234°
2026-04-24 01:36 51.36325 -54.13521 39841 ft 467 kts 234°
2026-04-24 01:36 51.32701 -54.22137 39843 ft 467 kts 234°
2026-04-24 01:37 51.29065 -54.30755 39840 ft 468 kts 234°
2026-04-24 01:37 51.25445 -54.39305 39841 ft 468 kts 234°
2026-04-24 01:38 51.21791 -54.47909 39839 ft 468 kts 233°
2026-04-24 01:38 51.18134 -54.56491 39842 ft 468 kts 233°
2026-04-24 01:39 51.14473 -54.65052 39840 ft 468 kts 233°
2026-04-24 01:39 51.10830 -54.73544 39843 ft 468 kts 233°
2026-04-24 01:40 51.07153 -54.82089 39847 ft 468 kts 233°
2026-04-24 01:40 51.03472 -54.90614 39847 ft 468 kts 233°
2026-04-24 01:41 50.99811 -54.99063 39842 ft 467 kts 233°
2026-04-24 01:41 50.96122 -55.07552 39847 ft 467 kts 233°
2026-04-24 01:42 50.92433 -55.16012 39845 ft 467 kts 233°
2026-04-24 01:42 50.88731 -55.24474 39838 ft 467 kts 232°
2026-04-24 01:43 50.85029 -55.32909 39848 ft 467 kts 232°
2026-04-24 01:43 50.81348 -55.41272 39850 ft 467 kts 232°
2026-04-24 01:44 50.77627 -55.49695 39845 ft 467 kts 232°
2026-04-24 01:44 50.73903 -55.58099 39848 ft 467 kts 232°
2026-04-24 01:45 50.70175 -55.66485 39839 ft 467 kts 232°
2026-04-24 01:45 50.66463 -55.74809 39841 ft 467 kts 232°
2026-04-24 01:46 50.62717 -55.83182 39842 ft 467 kts 232°
2026-04-24 01:46 50.58969 -55.91533 39841 ft 467 kts 232°
2026-04-24 01:47 50.55209 -55.99885 39843 ft 467 kts 232°
2026-04-24 01:47 50.51469 -56.08164 39840 ft 468 kts 232°
2026-04-24 01:48 50.47697 -56.16488 39844 ft 468 kts 232°
2026-04-24 01:48 50.43915 -56.24809 39842 ft 468 kts 231°
2026-04-24 01:49 50.40125 -56.33121 39842 ft 469 kts 231°
2026-04-24 01:49 50.36350 -56.41374 39843 ft 469 kts 231°
2026-04-24 01:50 50.32539 -56.49678 39839 ft 469 kts 231°
2026-04-24 01:50 50.28728 -56.57957 39845 ft 470 kts 231°
2026-04-24 01:51 50.24903 -56.66240 39844 ft 470 kts 231°
2026-04-24 01:51 50.21072 -56.74511 39847 ft 470 kts 231°
2026-04-24 01:52 50.17262 -56.82710 39847 ft 470 kts 231°
2026-04-24 01:52 50.13415 -56.90965 39847 ft 470 kts 231°
2026-04-24 01:53 50.09569 -56.99190 39846 ft 470 kts 231°
2026-04-24 01:53 50.05711 -57.07415 39848 ft 470 kts 231°
2026-04-24 01:54 50.01847 -57.15626 39849 ft 470 kts 231°
2026-04-24 01:54 49.98009 -57.23758 39852 ft 470 kts 231°
2026-04-24 01:55 49.94140 -57.31931 39851 ft 470 kts 231°
2026-04-24 01:55 49.90263 -57.40095 39854 ft 469 kts 231°
2026-04-24 01:56 49.86390 -57.48226 39853 ft 469 kts 231°
2026-04-24 01:56 49.82531 -57.56303 39855 ft 469 kts 231°
2026-04-24 01:57 49.78646 -57.64409 39856 ft 469 kts 231°
2026-04-24 01:57 49.74756 -57.72500 39855 ft 468 kts 230°
2026-04-24 01:58 49.70891 -57.80515 39858 ft 468 kts 230°
2026-04-24 01:58 49.66999 -57.88563 39849 ft 468 kts 230°
2026-04-24 01:59 49.63099 -57.96601 39845 ft 468 kts 230°
2026-04-24 01:59 49.59195 -58.04625 39845 ft 468 kts 230°
2026-04-24 02:00 49.55287 -58.12632 39841 ft 467 kts 230°
2026-04-24 02:00 49.51403 -58.20566 39843 ft 467 kts 230°
2026-04-24 02:01 49.47483 -58.28550 39844 ft 467 kts 230°
2026-04-24 02:01 49.43561 -58.36514 39845 ft 467 kts 230°
2026-04-24 02:02 49.39638 -58.44455 39846 ft 467 kts 230°
2026-04-24 02:02 49.35730 -58.52343 39839 ft 467 kts 230°
2026-04-24 02:03 49.29829 -58.64211 39844 ft 467 kts 230°
2026-04-24 02:03 49.25889 -58.72104 39846 ft 466 kts 230°
2026-04-24 02:04 49.21968 -58.79937 39844 ft 466 kts 230°
2026-04-24 02:04 49.18025 -58.87791 39842 ft 466 kts 230°
2026-04-24 02:05 49.14070 -58.95645 39843 ft 466 kts 230°
2026-04-24 02:05 49.10113 -59.03479 39843 ft 466 kts 230°
2026-04-24 02:06 49.06179 -59.11247 39840 ft 466 kts 230°
2026-04-24 02:06 49.02216 -59.19048 39841 ft 466 kts 230°
2026-04-24 02:07 48.98246 -59.26840 39841 ft 466 kts 230°
2026-04-24 02:07 48.94274 -59.34613 39841 ft 466 kts 230°
2026-04-24 02:08 48.90293 -59.42382 39839 ft 465 kts 230°
2026-04-24 02:08 48.86307 -59.50138 39841 ft 465 kts 230°
2026-04-24 02:09 48.82349 -59.57817 39835 ft 465 kts 230°
2026-04-24 02:09 48.78358 -59.65539 39834 ft 465 kts 230°
2026-04-24 02:10 48.74365 -59.73242 39834 ft 465 kts 230°
2026-04-24 02:10 48.70369 -59.80927 39836 ft 464 kts 230°
2026-04-24 02:11 48.66397 -59.88546 39833 ft 464 kts 230°
2026-04-24 02:11 48.62390 -59.96210 39834 ft 464 kts 230°
2026-04-24 02:12 48.58384 -60.03849 39832 ft 464 kts 230°
2026-04-24 02:12 48.54368 -60.11486 39832 ft 464 kts 230°
2026-04-24 02:13 48.50355 -60.19096 39832 ft 463 kts 230°
2026-04-24 02:13 48.46368 -60.26636 39830 ft 463 kts 229°
2026-04-24 02:14 48.42347 -60.34218 39828 ft 463 kts 229°
2026-04-24 02:14 48.38325 -60.41782 39829 ft 463 kts 229°
2026-04-24 02:15 48.34326 -60.49279 39829 ft 462 kts 229°
2026-04-24 02:15 48.30303 -60.56800 39829 ft 462 kts 229°
2026-04-24 02:16 48.26274 -60.64315 39828 ft 462 kts 229°
2026-04-24 02:16 48.22244 -60.71807 39825 ft 461 kts 229°
2026-04-24 02:17 48.18236 -60.79240 39826 ft 461 kts 229°
2026-04-24 02:17 48.14201 -60.86702 39827 ft 461 kts 229°
2026-04-24 02:18 48.10164 -60.94145 39829 ft 461 kts 229°
2026-04-24 02:18 48.06122 -61.01579 39830 ft 460 kts 229°
2026-04-24 02:19 48.02107 -61.08942 39826 ft 460 kts 229°
2026-04-24 02:19 47.98060 -61.16343 39827 ft 460 kts 229°
2026-04-24 02:20 47.94005 -61.23739 39829 ft 460 kts 229°
2026-04-24 02:20 47.89952 -61.31112 39834 ft 460 kts 229°
2026-04-24 02:21 47.85893 -61.38475 39828 ft 459 kts 229°
2026-04-24 02:21 47.81868 -61.45757 39831 ft 459 kts 229°
2026-04-24 02:22 47.77801 -61.53093 39831 ft 459 kts 229°
2026-04-24 02:22 47.73736 -61.60408 39832 ft 459 kts 229°
2026-04-24 02:23 47.69666 -61.67712 39830 ft 459 kts 229°
2026-04-24 02:23 47.65617 -61.74959 39838 ft 459 kts 229°
2026-04-24 02:24 47.61543 -61.82229 39832 ft 459 kts 229°
2026-04-24 02:24 47.57460 -61.89497 39834 ft 458 kts 229°
2026-04-24 02:25 47.53377 -61.96746 39832 ft 458 kts 229°
2026-04-24 02:25 47.49321 -62.03928 39835 ft 458 kts 229°
2026-04-24 02:26 47.45235 -62.11143 39837 ft 458 kts 229°
2026-04-24 02:26 47.41141 -62.18353 39829 ft 457 kts 229°
2026-04-24 02:27 47.37048 -62.25542 39825 ft 457 kts 229°
2026-04-24 02:27 47.32980 -62.32668 39829 ft 457 kts 229°
2026-04-24 02:28 47.28885 -62.39824 39831 ft 457 kts 229°
2026-04-24 02:28 47.24785 -62.46968 39833 ft 457 kts 229°
2026-04-24 02:29 47.20680 -62.54103 39833 ft 456 kts 229°
2026-04-24 02:29 47.16603 -62.61170 39835 ft 456 kts 229°
2026-04-24 02:30 47.12492 -62.68279 39836 ft 456 kts 229°
2026-04-24 02:30 47.08381 -62.75370 39832 ft 456 kts 229°
2026-04-24 02:31 47.04268 -62.82442 39837 ft 456 kts 229°
2026-04-24 02:31 47.00844 -62.88318 39832 ft 456 kts 229°
2026-04-24 02:32 46.96049 -62.96524 39838 ft 456 kts 229°
2026-04-24 02:32 46.91925 -63.03562 39836 ft 455 kts 229°
2026-04-24 02:33 46.88496 -63.09401 39834 ft 455 kts 229°
2026-04-24 02:33 46.83699 -63.17548 39834 ft 455 kts 229°
2026-04-24 02:34 46.79569 -63.24543 39831 ft 455 kts 229°
2026-04-24 02:34 46.76130 -63.30352 39835 ft 455 kts 229°
2026-04-24 02:35 46.71989 -63.37334 39833 ft 455 kts 229°
2026-04-24 02:35 46.67170 -63.45434 39837 ft 455 kts 229°
2026-04-24 02:36 46.63023 -63.52387 39833 ft 455 kts 229°
2026-04-24 02:36 46.59574 -63.58154 39830 ft 454 kts 230°
2026-04-24 02:37 46.55425 -63.65078 39832 ft 454 kts 230°
2026-04-24 02:37 46.51272 -63.71990 39829 ft 454 kts 230°
2026-04-24 02:38 46.47114 -63.78892 39833 ft 454 kts 230°
2026-04-24 02:38 46.42982 -63.85737 39831 ft 454 kts 230°
2026-04-24 02:39 46.38811 -63.92625 39832 ft 454 kts 230°
2026-04-24 02:39 46.34642 -63.99494 39833 ft 454 kts 230°
2026-04-24 02:40 46.30466 -64.06357 39828 ft 454 kts 230°
2026-04-24 02:40 46.26316 -64.13161 39825 ft 454 kts 229°
2026-04-24 02:41 46.22130 -64.20007 39824 ft 454 kts 230°
2026-04-24 02:41 46.17942 -64.26838 39820 ft 454 kts 230°
2026-04-24 02:42 46.13752 -64.33657 39820 ft 454 kts 230°
2026-04-24 02:42 46.09559 -64.40463 39828 ft 454 kts 230°
2026-04-24 02:43 46.05394 -64.47205 39828 ft 454 kts 230°
2026-04-24 02:43 46.01198 -64.53984 39826 ft 454 kts 230°
2026-04-24 02:44 45.96993 -64.60758 39827 ft 454 kts 230°
2026-04-24 02:44 45.92787 -64.67518 39820 ft 453 kts 230°
2026-04-24 02:45 45.88613 -64.74211 39827 ft 453 kts 230°
2026-04-24 02:45 45.84398 -64.80951 39819 ft 453 kts 230°
2026-04-24 02:46 45.80189 -64.87667 39820 ft 453 kts 230°
2026-04-24 02:46 45.75976 -64.94372 39823 ft 453 kts 230°
2026-04-24 02:47 45.71787 -65.01022 39824 ft 453 kts 230°
2026-04-24 02:47 45.67567 -65.07706 39826 ft 453 kts 230°
2026-04-24 02:48 45.63346 -65.14375 39827 ft 452 kts 230°
2026-04-24 02:48 45.59122 -65.21033 39823 ft 452 kts 230°
2026-04-24 02:49 45.54894 -65.27681 39818 ft 452 kts 230°
2026-04-24 02:49 45.50694 -65.34268 39821 ft 452 kts 230°
2026-04-24 02:50 45.46464 -65.40890 39825 ft 452 kts 230°
2026-04-24 02:50 45.42227 -65.47504 39827 ft 452 kts 230°
2026-04-24 02:51 45.37987 -65.54105 39831 ft 452 kts 230°
2026-04-24 02:51 45.33773 -65.60652 39831 ft 452 kts 230°
2026-04-24 02:52 45.29531 -65.67228 39832 ft 452 kts 230°
2026-04-24 02:52 45.25283 -65.73794 39829 ft 451 kts 230°
2026-04-24 02:53 45.21033 -65.80350 39829 ft 451 kts 230°
2026-04-24 02:53 45.16780 -65.86897 39831 ft 451 kts 230°
2026-04-24 02:54 45.12562 -65.93377 39829 ft 451 kts 230°
2026-04-24 02:54 45.08303 -65.99905 39832 ft 451 kts 230°
2026-04-24 02:55 45.04051 -66.06405 39831 ft 451 kts 231°
2026-04-24 02:55 44.99790 -66.12907 39832 ft 450 kts 231°
2026-04-24 02:56 44.95557 -66.19350 39834 ft 450 kts 231°
2026-04-24 02:56 44.91295 -66.25823 39834 ft 450 kts 231°
2026-04-24 02:57 44.87030 -66.32285 39836 ft 450 kts 231°
2026-04-24 02:57 44.82766 -66.38730 39837 ft 450 kts 231°
2026-04-24 02:58 44.78525 -66.45127 39843 ft 450 kts 231°
2026-04-24 02:58 44.74251 -66.51560 39842 ft 450 kts 231°
2026-04-24 02:59 44.69975 -66.57980 39846 ft 450 kts 231°
2026-04-24 02:59 44.65699 -66.64386 39847 ft 450 kts 231°
2026-04-24 03:00 44.61445 -66.70743 39848 ft 449 kts 231°
2026-04-24 03:00 44.57165 -66.77126 39849 ft 449 kts 231°
2026-04-24 03:01 44.52879 -66.83504 39855 ft 449 kts 231°
2026-04-24 03:01 44.48592 -66.89868 39847 ft 449 kts 232°
2026-04-24 03:02 44.44301 -66.96224 39855 ft 449 kts 232°
2026-04-24 03:02 44.40731 -67.03150 39851 ft 435 kts 251°
2026-04-24 03:03 44.38990 -67.11123 39856 ft 431 kts 255°
2026-04-24 03:03 44.36908 -67.18995 39864 ft 432 kts 255°
2026-04-24 03:04 44.34909 -67.26855 39863 ft 431 kts 256°
2026-04-24 03:04 44.32906 -67.34743 39869 ft 431 kts 256°
2026-04-24 03:05 44.30898 -67.42631 39867 ft 431 kts 256°
2026-04-24 03:05 44.28889 -67.50497 39865 ft 430 kts 256°
2026-04-24 03:06 44.26874 -67.58361 39872 ft 430 kts 256°
2026-04-24 03:06 44.24866 -67.66167 39873 ft 430 kts 256°
2026-04-24 03:07 44.22843 -67.74007 39874 ft 430 kts 256°
2026-04-24 03:07 44.20816 -67.81841 39878 ft 429 kts 256°
2026-04-24 03:08 44.17768 -67.93565 39881 ft 428 kts 256°
2026-04-24 03:09 44.15749 -68.01301 39886 ft 428 kts 256°
2026-04-24 03:09 44.13711 -68.09082 39893 ft 427 kts 256°
2026-04-24 03:10 44.11671 -68.16848 39887 ft 427 kts 256°
2026-04-24 03:10 44.09626 -68.24608 39891 ft 427 kts 256°
2026-04-24 03:11 44.07592 -68.32299 39893 ft 426 kts 256°
2026-04-24 03:11 44.05544 -68.40020 39895 ft 426 kts 256°
2026-04-24 03:12 44.03489 -68.47738 39896 ft 425 kts 256°
2026-04-24 03:12 44.01434 -68.55435 39895 ft 425 kts 256°
2026-04-24 03:13 43.99376 -68.63116 39900 ft 424 kts 256°
2026-04-24 03:13 43.97312 -68.70799 39905 ft 424 kts 256°
2026-04-24 03:14 43.95260 -68.78412 39911 ft 424 kts 256°
2026-04-24 03:14 43.93190 -68.86065 39920 ft 424 kts 256°
2026-04-24 03:15 43.91114 -68.93719 39915 ft 423 kts 256°
2026-04-24 03:15 43.89051 -69.01299 39918 ft 423 kts 256°
2026-04-24 03:16 43.86971 -69.08919 39917 ft 423 kts 256°
2026-04-24 03:16 43.84886 -69.16534 39917 ft 422 kts 256°
2026-04-24 03:17 43.82800 -69.24125 39917 ft 422 kts 256°
2026-04-24 03:17 43.80708 -69.31715 39919 ft 421 kts 256°
2026-04-24 03:18 43.78630 -69.39239 39926 ft 421 kts 256°
2026-04-24 03:18 43.76535 -69.46801 39932 ft 421 kts 256°
2026-04-24 03:19 43.74436 -69.54357 39932 ft 421 kts 256°
2026-04-24 03:19 43.72290 -69.61893 39933 ft 422 kts 255°
2026-04-24 03:20 43.70094 -69.69343 39934 ft 422 kts 256°
2026-04-24 03:20 43.67886 -69.76843 39942 ft 421 kts 256°
2026-04-24 03:21 43.65677 -69.84328 39942 ft 421 kts 256°
2026-04-24 03:21 43.63460 -69.91821 39943 ft 421 kts 256°
2026-04-24 03:22 43.61256 -69.99245 39932 ft 421 kts 256°
2026-04-24 03:22 43.59036 -70.06703 39934 ft 420 kts 256°
2026-04-24 03:23 43.56808 -70.14163 39936 ft 420 kts 256°
2026-04-24 03:23 43.54579 -70.21608 39938 ft 420 kts 256°
2026-04-24 03:24 43.52350 -70.29030 39935 ft 419 kts 256°
2026-04-24 03:24 43.50131 -70.36398 39945 ft 418 kts 256°
2026-04-24 03:25 43.47901 -70.43783 39938 ft 418 kts 256°
2026-04-24 03:25 43.45666 -70.51161 39946 ft 417 kts 256°
2026-04-24 03:26 43.43428 -70.58534 39944 ft 417 kts 256°
2026-04-24 03:26 43.42045 -70.62083 39941 ft 430 kts 242°
2026-04-24 03:26 43.40189 -70.65284 39946 ft 434 kts 241°
2026-04-24 03:27 43.36470 -70.71803 39948 ft 434 kts 241°
2026-04-24 03:27 43.32703 -70.78290 39948 ft 434 kts 240°
2026-04-24 03:28 43.28935 -70.84747 39927 ft 434 kts 240°
2026-04-24 03:28 43.25182 -70.91163 39927 ft 433 kts 241°
2026-04-24 03:29 43.21409 -70.97597 39932 ft 433 kts 241°
2026-04-24 03:29 43.17633 -71.04023 39931 ft 433 kts 241°
2026-04-24 03:30 43.13848 -71.10451 39937 ft 433 kts 241°
2026-04-24 03:30 43.10066 -71.16859 39934 ft 432 kts 241°
2026-04-24 03:31 43.06315 -71.23202 39936 ft 432 kts 241°
2026-04-24 03:31 43.02540 -71.29571 39932 ft 430 kts 242°
2026-04-24 03:32 42.98775 -71.35909 39928 ft 429 kts 242°
2026-04-24 03:32 42.95023 -71.42212 39930 ft 427 kts 242°
2026-04-24 03:33 42.91306 -71.48443 39928 ft 425 kts 242°
2026-04-24 03:33 42.87582 -71.54666 39685 ft 421 kts 242°
2026-04-24 03:34 42.83881 -71.60848 39919 ft 421 kts 242°
2026-04-24 03:34 42.80170 -71.67031 39943 ft 421 kts 242°
2026-04-24 03:35 42.76463 -71.73196 39948 ft 421 kts 242°
2026-04-24 03:35 42.72769 -71.79322 39775 ft 413 kts 243°
2026-04-24 03:35 42.70981 -71.82285 39558 ft 408 kts 243°
2026-04-24 03:36 42.69188 -71.85252 39338 ft 404 kts 243°
2026-04-24 03:36 42.67412 -71.88188 39111 ft 401 kts 244°
2026-04-24 03:36 42.65651 -71.91096 38886 ft 397 kts 244°
2026-04-24 03:36 42.63905 -71.93977 38671 ft 394 kts 244°
2026-04-24 03:37 42.62167 -71.96840 38391 ft 391 kts 245°
2026-04-24 03:37 42.60445 -71.99676 38105 ft 388 kts 245°
2026-04-24 03:37 42.58753 -72.02459 37815 ft 386 kts 245°
2026-04-24 03:37 42.57051 -72.05256 37536 ft 383 kts 245°
2026-04-24 03:38 42.55356 -72.08039 37265 ft 381 kts 245°
2026-04-24 03:38 42.53677 -72.10794 36994 ft 379 kts 245°
2026-04-24 03:38 42.51997 -72.13546 36721 ft 377 kts 245°
2026-04-24 03:38 42.50329 -72.16278 36470 ft 375 kts 245°
2026-04-24 03:39 42.48671 -72.18989 36196 ft 373 kts 245°
2026-04-24 03:39 42.47015 -72.21695 35947 ft 371 kts 245°
2026-04-24 03:39 42.45372 -72.24379 35686 ft 370 kts 246°
2026-04-24 03:39 42.43730 -72.27057 35427 ft 368 kts 246°
2026-04-24 03:40 42.42103 -72.29710 35174 ft 366 kts 246°
2026-04-24 03:40 42.40500 -72.32320 34926 ft 364 kts 246°
2026-04-24 03:40 42.38883 -72.34951 34669 ft 363 kts 246°
2026-04-24 03:40 42.37274 -72.37567 34435 ft 361 kts 246°
2026-04-24 03:41 42.35672 -72.40169 34164 ft 360 kts 246°
2026-04-24 03:41 42.34070 -72.42768 33916 ft 357 kts 246°
2026-04-24 03:41 42.32497 -72.45316 33304 ft 351 kts 246°
2026-04-24 03:41 42.30932 -72.47851 32489 ft 350 kts 246°
2026-04-24 03:42 42.29375 -72.50372 31671 ft 349 kts 246°
2026-04-24 03:42 42.27846 -72.52846 30904 ft 347 kts 246°
2026-04-24 03:42 42.26303 -72.55338 30149 ft 345 kts 246°
2026-04-24 03:42 42.24772 -72.57809 29312 ft 342 kts 245°
2026-04-24 03:43 42.23255 -72.60257 28520 ft 339 kts 245°
2026-04-24 03:43 42.21761 -72.62662 28028 ft 327 kts 245°
2026-04-24 03:43 42.20336 -72.64954 27673 ft 312 kts 246°
2026-04-24 03:43 42.18965 -72.67161 27302 ft 302 kts 246°
2026-04-24 03:44 42.17612 -72.69351 26907 ft 307 kts 246°
2026-04-24 03:44 42.16214 -72.71563 26462 ft 317 kts 242°
2026-04-24 03:44 42.14574 -72.73595 25998 ft 327 kts 237°
2026-04-24 03:44 42.12903 -72.75657 25648 ft 324 kts 238°
2026-04-24 03:45 42.11257 -72.77714 25285 ft 324 kts 238°
2026-04-24 03:45 42.09607 -72.79789 24889 ft 323 kts 238°
2026-04-24 03:45 42.07969 -72.81860 24494 ft 323 kts 238°
2026-04-24 03:45 42.06329 -72.83935 24096 ft 323 kts 238°
2026-04-24 03:46 42.04696 -72.86003 23702 ft 321 kts 238°
2026-04-24 03:46 42.03076 -72.88051 23254 ft 319 kts 238°
2026-04-24 03:46 42.01469 -72.90084 22813 ft 316 kts 238°
2026-04-24 03:46 41.99898 -72.92067 22425 ft 312 kts 238°
2026-04-24 03:47 41.98324 -72.94056 22025 ft 309 kts 238°
2026-04-24 03:47 41.96769 -72.96019 21646 ft 306 kts 238°
2026-04-24 03:47 41.95220 -72.97971 21266 ft 303 kts 238°
2026-04-24 03:47 41.93693 -72.99897 20893 ft 300 kts 238°
2026-04-24 03:48 41.92179 -73.01802 20511 ft 296 kts 238°
2026-04-24 03:48 41.90683 -73.03685 20156 ft 294 kts 238°
2026-04-24 03:48 41.89195 -73.05558 19787 ft 293 kts 238°
2026-04-24 03:48 41.87730 -73.07399 19418 ft 291 kts 238°
2026-04-24 03:49 41.86258 -73.09248 19046 ft 288 kts 237°
2026-04-24 03:49 41.84798 -73.11082 18694 ft 287 kts 237°
2026-04-24 03:49 41.83342 -73.12908 18321 ft 286 kts 237°
2026-04-24 03:49 41.81891 -73.14727 17925 ft 285 kts 237°
2026-04-24 03:50 41.80449 -73.16533 17521 ft 283 kts 237°
2026-04-24 03:50 41.79019 -73.18322 17154 ft 280 kts 237°
2026-04-24 03:50 41.77603 -73.20094 16792 ft 277 kts 237°
2026-04-24 03:50 41.76205 -73.21841 16435 ft 274 kts 237°
2026-04-24 03:51 41.74817 -73.23576 16079 ft 272 kts 237°
2026-04-24 03:51 41.73460 -73.25272 15738 ft 269 kts 237°
2026-04-24 03:51 41.72094 -73.26975 15385 ft 268 kts 237°
2026-04-24 03:51 41.70719 -73.28693 15037 ft 272 kts 236°
2026-04-24 03:52 41.69332 -73.30422 14689 ft 273 kts 236°
2026-04-24 03:52 41.67943 -73.32152 14333 ft 273 kts 236°
2026-04-24 03:52 41.66559 -73.33873 13966 ft 271 kts 236°
2026-04-24 03:52 41.65181 -73.35587 13598 ft 269 kts 236°
2026-04-24 03:53 41.63812 -73.37291 13216 ft 267 kts 236°
2026-04-24 03:53 41.62475 -73.38952 12886 ft 265 kts 236°
2026-04-24 03:53 41.61137 -73.40613 12571 ft 261 kts 236°
2026-04-24 03:53 41.59820 -73.42248 12290 ft 256 kts 236°
2026-04-24 03:54 41.58529 -73.43848 11996 ft 251 kts 236°
2026-04-24 03:54 41.57259 -73.45422 11671 ft 248 kts 236°
2026-04-24 03:54 41.55989 -73.46999 11345 ft 251 kts 236°
2026-04-24 03:54 41.54700 -73.48595 11012 ft 253 kts 236°
2026-04-24 03:55 41.53410 -73.50191 10680 ft 252 kts 236°
2026-04-24 03:55 41.52129 -73.51779 10320 ft 250 kts 236°
2026-04-24 03:55 41.50866 -73.53339 9972 ft 245 kts 235°
2026-04-24 03:55 41.49646 -73.54842 9679 ft 239 kts 235°
2026-04-24 03:56 41.48429 -73.56348 9345 ft 239 kts 235°
2026-04-24 03:56 41.47199 -73.57871 8982 ft 244 kts 234°
2026-04-24 03:56 41.45953 -73.59408 8641 ft 245 kts 234°
2026-04-24 03:56 41.44698 -73.60957 8307 ft 245 kts 233°
2026-04-24 03:57 41.43441 -73.62487 8015 ft 244 kts 230°
2026-04-24 03:57 41.41890 -73.63536 7836 ft 263 kts 202°
2026-04-24 03:57 41.40041 -73.63701 7709 ft 275 kts 186°
2026-04-24 03:57 41.38132 -73.63634 7550 ft 275 kts 186°
2026-04-24 03:58 41.36218 -73.63569 7392 ft 274 kts 186°
2026-04-24 03:58 41.34312 -73.63504 7226 ft 274 kts 186°
2026-04-24 03:58 41.32415 -73.63439 7049 ft 272 kts 185°
2026-04-24 03:58 41.30522 -73.63374 6896 ft 271 kts 185°
2026-04-24 03:59 41.28646 -73.63312 6747 ft 270 kts 185°
2026-04-24 03:59 41.26768 -73.63249 6576 ft 269 kts 185°
2026-04-24 03:59 41.24896 -73.63185 6425 ft 268 kts 185°
2026-04-24 03:59 41.23034 -73.63122 6260 ft 267 kts 185°
2026-04-24 04:00 41.21209 -73.63059 6102 ft 266 kts 185°
2026-04-24 04:00 41.19362 -73.62998 5938 ft 265 kts 185°
2026-04-24 04:00 41.17515 -73.62935 5768 ft 265 kts 184°
2026-04-24 04:00 41.15677 -73.62873 5623 ft 264 kts 184°
2026-04-24 04:01 41.13843 -73.62812 5467 ft 264 kts 184°
2026-04-24 04:01 41.12004 -73.62749 5314 ft 264 kts 184°
2026-04-24 04:01 41.10171 -73.62688 5156 ft 263 kts 183°
2026-04-24 04:01 41.08338 -73.62626 4995 ft 263 kts 183°
2026-04-24 04:02 41.06546 -73.62709 4823 ft 261 kts 189°
2026-04-24 04:02 41.04733 -73.62884 4647 ft 260 kts 188°
2026-04-24 04:02 41.03011 -73.63038 4500 ft 259 kts 188°
2026-04-24 04:02 41.01233 -73.63188 4356 ft 251 kts 188°
2026-04-24 04:03 40.99524 -73.63330 4213 ft 242 kts 188°
2026-04-24 04:03 40.97863 -73.63464 4067 ft 234 kts 187°
2026-04-24 04:03 40.96271 -73.63593 3931 ft 225 kts 187°
2026-04-24 04:03 40.94735 -73.63715 3815 ft 218 kts 187°
2026-04-24 04:04 40.93238 -73.63836 3684 ft 219 kts 187°
2026-04-24 04:04 40.91713 -73.63959 3558 ft 220 kts 187°
2026-04-24 04:04 40.90182 -73.64081 3433 ft 220 kts 187°
2026-04-24 04:04 40.88663 -73.64201 3299 ft 219 kts 187°
2026-04-24 04:05 40.87146 -73.64323 3182 ft 218 kts 186°
2026-04-24 04:05 40.85631 -73.64443 3022 ft 218 kts 186°
2026-04-24 04:05 40.84122 -73.64564 2914 ft 216 kts 186°
2026-04-24 04:05 40.82649 -73.64682 2880 ft 210 kts 186°
2026-04-24 04:06 40.81208 -73.65003 2872 ft 211 kts 205°
2026-04-24 04:06 40.80042 -73.66034 2872 ft 203 kts 232°
2026-04-24 04:06 40.79090 -73.67405 2892 ft 203 kts 233°
2026-04-24 04:06 40.78112 -73.68762 2744 ft 205 kts 232°
2026-04-24 04:07 40.77113 -73.70106 2502 ft 206 kts 231°
2026-04-24 04:07 40.76107 -73.71434 2211 ft 205 kts 231°
2026-04-24 04:07 40.75083 -73.72797 1959 ft 205 kts 231°
2026-04-24 04:07 40.74091 -73.74089 1898 ft 198 kts 232°
2026-04-24 04:08 40.73505 -73.75577 1754 ft 169 kts 274°
2026-04-24 04:08 40.73708 -73.76908 1616 ft 136 kts 295°
2026-04-24 04:08 40.73960 -73.78072 1383 ft 132 kts 293°
2026-04-24 04:08 40.74256 -73.79152 1207 ft 120 kts 301°
2026-04-24 04:09 40.74635 -73.80114 1038 ft 118 kts 306°
2026-04-24 04:09 40.75059 -73.81041 851 ft 119 kts 305°
2026-04-24 04:09 40.75495 -73.81987 701 ft 123 kts 303°
2026-04-24 04:09 40.75941 -73.82957 540 ft 125 kts 303°
2026-04-24 04:10 40.76394 -73.83941 368 ft 126 kts 303°
2026-04-24 04:10 40.76837 -73.84934 214 ft 126 kts 303°
2026-04-24 04:10 40.77292 -73.85898 42 ft 123 kts 304°
2026-04-24 04:11 40.77984 -73.87336 17 ft 36 kts 302°
2026-04-24 04:11 40.78089 -73.87555 18 ft 23 kts 301°
2026-04-24 04:11 40.78178 -73.87743 19 ft 26 kts 301°
2026-04-24 04:11 40.78194 -73.87855 23 ft 13 kts 229°
2026-04-24 04:12 40.78136 -73.87857 21 ft 0 kts 167°
2026-04-24 04:12 40.78132 -73.87856 21 ft 0 kts 167°
2026-04-24 04:13 40.78123 -73.87853 21 ft 4 kts 167°
2026-04-24 04:13 40.78077 -73.87840 24 ft 10 kts 167°
2026-04-24 04:14 40.78012 -73.87792 20 ft 11 kts 128°
2026-04-24 04:14 40.77999 -73.87783 20 ft 5 kts 164°
2026-04-24 04:14 40.77924 -73.87831 21 ft 17 kts 212°
2026-04-24 04:14 40.77812 -73.87923 24 ft 19 kts 212°
2026-04-24 04:15 40.77732 -73.87989 23 ft 10 kts 212°
2026-04-24 04:15 40.77693 -73.88022 24 ft 9 kts 212°
2026-04-24 04:15 40.77621 -73.88080 24 ft 15 kts 212°
2026-04-24 04:15 40.77517 -73.88167 22 ft 20 kts 211°
2026-04-24 04:16 40.77417 -73.88247 25 ft 11 kts 199°
2026-04-24 04:16 40.77369 -73.88251 24 ft 1 kts 199°
2026-04-24 04:16 40.77360 -73.88271 23 ft 4 kts 259°
2026-04-24 04:16 40.77369 -73.88309 22 ft 4 kts 291°
2026-04-24 04:17 40.77375 -73.88329 24 ft 0 kts 291°
2026-04-24 04:17 40.77376 -73.88331 24 ft 0 kts 291°